Tracking 17147 objects as of 3-July-2015
HD Live streaming from Space Station

COSMOS 1803

Track COSMOS 1803 now!
10-day predictions
COSMOS 1803 is classified as:


NORAD ID: 17177
Int'l Code: 1986-094A
Perigee: 1,503.9 km
Apogee: 1,510.5 km
Inclination: 82.6 °
Period: 116.0 minutes
Semi major axis: 7878 km
RCS: 10.2434 m2 (large)
Launch date: December 2, 1986
Source: Commonwealth of Independent States (former USSR) (CIS)
Your satellite tracking list
Your tracking list is empty





NASA's NSSDC Master Catalog

Two Line Element Set (TLE):
1 17177U 86094A   15183.17949769  .00000012  00000-0  13117-4 0  9990
2 17177 082.6071 298.8622 0004181 161.5239 255.2931 12.41552426295428

Source of the keplerian elements: AFSPC

N2YO: 358